GAF007 ETNW-EDDK

Flight info

Callsign GAF007
Flight time 0h 33m
Altitude 30000
Route ROBEG N850 LARBU Z189 RUNER DCT KOPAG KOPAG1C
Aircraft A400/H-SDE2E3FGHIJ4J5M1RWXY/LB1D1

Departure

Time 2026-04-26 14:23
Airport Wunstorf Air Base (ETNW)

Arrival

Time 2026-04-26 14:56
Airport Cologne Bonn Airport (EDDK)
Time Latitude Longitude Altitude Speed Heading
2026-04-26 14:04 52.46023 9.42511 184 ft 0 kts 262°
2026-04-26 14:17 52.46022 9.42499 191 ft 3 kts 262°
2026-04-26 14:18 52.46007 9.42458 198 ft 5 kts 214°
2026-04-26 14:18 52.45961 9.42452 182 ft 6 kts 166°
2026-04-26 14:18 52.45926 9.42474 191 ft 5 kts 139°
2026-04-26 14:18 52.45917 9.42543 180 ft 8 kts 86°
2026-04-26 14:19 52.45924 9.42652 184 ft 12 kts 82°
2026-04-26 14:19 52.45940 9.42799 184 ft 15 kts 80°
2026-04-26 14:19 52.45958 9.42977 181 ft 17 kts 82°
2026-04-26 14:19 52.45975 9.43176 191 ft 18 kts 82°
2026-04-26 14:20 52.45993 9.43389 183 ft 18 kts 82°
2026-04-26 14:20 52.46011 9.43593 188 ft 19 kts 82°
2026-04-26 14:20 52.46030 9.43808 196 ft 20 kts 81°
2026-04-26 14:20 52.46051 9.44038 199 ft 20 kts 81°
2026-04-26 14:21 52.46046 9.44243 195 ft 18 kts 97°
2026-04-26 14:21 52.46031 9.44473 205 ft 21 kts 96°
2026-04-26 14:21 52.46017 9.44695 208 ft 19 kts 96°
2026-04-26 14:21 52.45983 9.44858 202 ft 10 kts 151°
2026-04-26 14:22 52.45926 9.44838 209 ft 9 kts 229°
2026-04-26 14:22 52.45914 9.44757 207 ft 8 kts 261°
2026-04-26 14:22 52.45864 9.44195 186 ft 104 kts 261°
2026-04-26 14:22 52.45703 9.42520 410 ft 173 kts 261°
2026-04-26 14:23 52.45503 9.40437 1114 ft 195 kts 261°
2026-04-26 14:23 52.45184 9.38131 1836 ft 225 kts 254°
2026-04-26 14:23 52.44649 9.35517 2488 ft 250 kts 250°
2026-04-26 14:23 52.44052 9.32787 3349 ft 257 kts 251°
2026-04-26 14:24 52.43447 9.30008 3841 ft 261 kts 248°
2026-04-26 14:24 52.42507 9.27473 3987 ft 262 kts 227°
2026-04-26 14:24 52.40989 9.25869 4031 ft 265 kts 197°
2026-04-26 14:24 52.39116 9.25547 4674 ft 278 kts 179°
2026-04-26 14:25 52.37222 9.25681 5964 ft 273 kts 177°
2026-04-26 14:25 52.35317 9.25873 7200 ft 277 kts 177°
2026-04-26 14:25 52.33372 9.26065 8352 ft 282 kts 178°
2026-04-26 14:25 52.31386 9.26251 9493 ft 289 kts 179°
2026-04-26 14:26 52.29351 9.26435 10619 ft 296 kts 179°
2026-04-26 14:26 52.27276 9.26617 11697 ft 301 kts 179°
2026-04-26 14:26 52.25167 9.26800 12668 ft 307 kts 180°
2026-04-26 14:26 52.23018 9.26862 13178 ft 311 kts 184°
2026-04-26 14:27 52.20832 9.26663 13350 ft 316 kts 188°
2026-04-26 14:27 52.18593 9.26287 13830 ft 332 kts 189°
2026-04-26 14:27 52.16287 9.25827 14219 ft 332 kts 190°
2026-04-26 14:27 52.14004 9.25360 14307 ft 329 kts 190°
2026-04-26 14:28 52.11738 9.24903 14314 ft 327 kts 190°
2026-04-26 14:28 52.09475 9.24461 14308 ft 327 kts 189°
2026-04-26 14:28 52.07219 9.24035 14311 ft 327 kts 189°
2026-04-26 14:28 52.04990 9.23595 14310 ft 326 kts 191°
2026-04-26 14:29 52.02742 9.23069 14297 ft 326 kts 192°
2026-04-26 14:29 52.00504 9.22493 14298 ft 326 kts 192°
2026-04-26 14:29 51.98263 9.21894 14301 ft 326 kts 192°
2026-04-26 14:29 51.96025 9.21290 14301 ft 326 kts 192°
2026-04-26 14:30 51.93786 9.20688 14297 ft 326 kts 192°
2026-04-26 14:30 51.91558 9.20043 14292 ft 324 kts 196°
2026-04-26 14:30 51.89437 9.18866 14297 ft 321 kts 208°
2026-04-26 14:30 51.87572 9.16945 14298 ft 316 kts 222°
2026-04-26 14:31 51.85969 9.14594 14298 ft 314 kts 228°
2026-04-26 14:31 51.84466 9.12025 14299 ft 313 kts 231°
2026-04-26 14:31 51.83037 9.09370 14293 ft 313 kts 232°
2026-04-26 14:31 51.81638 9.06682 14294 ft 313 kts 233°
2026-04-26 14:32 51.80241 9.03985 14294 ft 313 kts 233°
2026-04-26 14:32 51.78835 9.01295 14296 ft 313 kts 232°
2026-04-26 14:32 51.77423 8.98624 14293 ft 313 kts 232°
2026-04-26 14:32 51.75999 8.95959 14295 ft 313 kts 232°
2026-04-26 14:33 51.74572 8.93308 14293 ft 313 kts 232°
2026-04-26 14:33 51.73140 8.90661 14294 ft 313 kts 232°
2026-04-26 14:33 51.71704 8.88015 14292 ft 313 kts 232°
2026-04-26 14:33 51.70271 8.85376 14285 ft 313 kts 231°
2026-04-26 14:34 51.68833 8.82730 14295 ft 313 kts 231°
2026-04-26 14:34 51.67395 8.80087 14291 ft 313 kts 231°
2026-04-26 14:34 51.65959 8.77449 14291 ft 313 kts 231°
2026-04-26 14:34 51.64520 8.74807 14290 ft 313 kts 231°
2026-04-26 14:35 51.63084 8.72173 14292 ft 313 kts 231°
2026-04-26 14:35 51.61555 8.69673 14291 ft 316 kts 222°
2026-04-26 14:35 51.59769 8.67590 14293 ft 318 kts 217°
2026-04-26 14:35 51.57897 8.65688 14291 ft 318 kts 214°
2026-04-26 14:36 51.56007 8.63926 14292 ft 319 kts 212°
2026-04-26 14:36 51.54060 8.62193 14293 ft 319 kts 212°
2026-04-26 14:36 51.52112 8.60486 14295 ft 319 kts 211°
2026-04-26 14:36 51.50158 8.58776 14293 ft 319 kts 212°
2026-04-26 14:37 51.48212 8.57064 14282 ft 319 kts 211°
2026-04-26 14:37 51.46264 8.55339 14288 ft 320 kts 212°
2026-04-26 14:37 51.44317 8.53607 14288 ft 320 kts 212°
2026-04-26 14:37 51.42372 8.51872 14287 ft 320 kts 212°
2026-04-26 14:38 51.40423 8.50132 14287 ft 320 kts 212°
2026-04-26 14:38 51.38502 8.48416 14285 ft 320 kts 212°
2026-04-26 14:38 51.36556 8.46681 14284 ft 320 kts 212°
2026-04-26 14:38 51.35245 8.45513 14283 ft 320 kts 212°
2026-04-26 14:39 51.32667 8.43219 14281 ft 320 kts 212°
2026-04-26 14:39 51.30722 8.41491 14274 ft 320 kts 212°
2026-04-26 14:39 51.28841 8.39612 14273 ft 317 kts 220°
2026-04-26 14:39 51.27296 8.37133 14269 ft 314 kts 233°
2026-04-26 14:40 51.26000 8.34330 14273 ft 314 kts 238°
2026-04-26 14:40 51.24831 8.31394 14271 ft 313 kts 241°
2026-04-26 14:40 51.23734 8.28389 14271 ft 313 kts 243°
2026-04-26 14:40 51.22666 8.25359 14269 ft 313 kts 243°
2026-04-26 14:41 51.21603 8.22325 14268 ft 313 kts 243°
2026-04-26 14:41 51.20535 8.19302 14266 ft 313 kts 243°
2026-04-26 14:41 51.19468 8.16320 14268 ft 313 kts 242°
2026-04-26 14:41 51.18378 8.13307 14266 ft 313 kts 242°
2026-04-26 14:42 51.17290 8.10297 14271 ft 313 kts 242°
2026-04-26 14:42 51.16198 8.07290 14272 ft 314 kts 242°
2026-04-26 14:42 51.15095 8.04290 14271 ft 314 kts 242°
2026-04-26 14:42 51.13990 8.01283 14268 ft 314 kts 242°
2026-04-26 14:43 51.12885 7.98283 14269 ft 314 kts 242°
2026-04-26 14:43 51.11778 7.95277 14273 ft 314 kts 242°
2026-04-26 14:43 51.10673 7.92274 14271 ft 314 kts 242°
2026-04-26 14:43 51.09569 7.89278 14271 ft 314 kts 242°
2026-04-26 14:44 51.08464 7.86278 14271 ft 314 kts 242°
2026-04-26 14:44 51.07215 7.83477 14260 ft 318 kts 228°
2026-04-26 14:44 51.05445 7.81333 14262 ft 322 kts 215°
2026-04-26 14:44 51.03537 7.79477 14255 ft 319 kts 213°
2026-04-26 14:45 51.01664 7.77707 13895 ft 310 kts 213°
2026-04-26 14:45 51.00439 7.76554 13536 ft 308 kts 213°
2026-04-26 14:45 50.97978 7.74244 12818 ft 306 kts 213°
2026-04-26 14:45 50.96152 7.72532 12328 ft 303 kts 213°
2026-04-26 14:46 50.94334 7.70830 11750 ft 303 kts 213°
2026-04-26 14:46 50.92520 7.69129 11036 ft 308 kts 213°
2026-04-26 14:46 50.90656 7.67380 10324 ft 311 kts 213°
2026-04-26 14:46 50.88813 7.65648 9574 ft 313 kts 213°
2026-04-26 14:47 50.86939 7.63877 8793 ft 314 kts 213°
2026-04-26 14:47 50.85071 7.62098 8041 ft 313 kts 213°
2026-04-26 14:47 50.83209 7.60310 7292 ft 312 kts 213°
2026-04-26 14:47 50.81362 7.58520 6552 ft 310 kts 213°
2026-04-26 14:48 50.79535 7.56726 5776 ft 308 kts 213°
2026-04-26 14:48 50.77728 7.54928 5032 ft 306 kts 213°
2026-04-26 14:48 50.75959 7.53106 4350 ft 300 kts 217°
2026-04-26 14:48 50.74577 7.50774 3849 ft 282 kts 237°
2026-04-26 14:49 50.73667 7.48285 3303 ft 243 kts 242°
2026-04-26 14:49 50.72914 7.46083 3003 ft 217 kts 244°
2026-04-26 14:49 50.72574 7.43864 3002 ft 206 kts 273°
2026-04-26 14:49 50.72735 7.41656 2986 ft 189 kts 282°
2026-04-26 14:50 50.72945 7.39790 2994 ft 158 kts 283°
2026-04-26 14:50 50.73124 7.38219 2993 ft 134 kts 283°
2026-04-26 14:50 50.73279 7.36835 2982 ft 126 kts 283°
2026-04-26 14:50 50.73430 7.35477 2990 ft 126 kts 283°
2026-04-26 14:51 50.73697 7.34179 2988 ft 123 kts 300°
2026-04-26 14:51 50.74177 7.33093 2987 ft 121 kts 312°
2026-04-26 14:51 50.74765 7.32125 2989 ft 122 kts 317°
2026-04-26 14:51 50.75382 7.31214 2993 ft 120 kts 320°
2026-04-26 14:52 50.76050 7.30254 2961 ft 136 kts 319°
2026-04-26 14:52 50.76763 7.29218 2723 ft 141 kts 318°
2026-04-26 14:52 50.77490 7.28166 2503 ft 142 kts 318°
2026-04-26 14:52 50.78212 7.27112 2350 ft 141 kts 317°
2026-04-26 14:53 50.78928 7.26063 2182 ft 140 kts 319°
2026-04-26 14:53 50.79652 7.25049 1857 ft 138 kts 320°
2026-04-26 14:53 50.80378 7.24045 1658 ft 138 kts 321°
2026-04-26 14:53 50.81104 7.23039 1587 ft 138 kts 318°
2026-04-26 14:54 50.81779 7.21992 1365 ft 138 kts 316°
2026-04-26 14:54 50.82485 7.20944 1170 ft 136 kts 318°
2026-04-26 14:54 50.83145 7.19990 995 ft 125 kts 318°
2026-04-26 14:54 50.83777 7.19075 808 ft 122 kts 317°
2026-04-26 14:55 50.84403 7.18173 671 ft 125 kts 319°
2026-04-26 14:55 50.85063 7.17232 475 ft 127 kts 318°
2026-04-26 14:55 50.85680 7.16334 334 ft 114 kts 317°
2026-04-26 14:55 50.86154 7.15641 295 ft 57 kts 320°
2026-04-26 14:56 50.86391 7.15307 278 ft 43 kts 319°
2026-04-26 14:56 50.86585 7.15025 272 ft 33 kts 316°
2026-04-26 14:56 50.86719 7.14827 267 ft 14 kts 304°
2026-04-26 14:56 50.86709 7.14658 268 ft 16 kts 244°
2026-04-26 14:57 50.86649 7.14476 267 ft 19 kts 245°
2026-04-26 14:57 50.86592 7.14284 267 ft 19 kts 246°
2026-04-26 14:57 50.86535 7.14086 262 ft 21 kts 245°
2026-04-26 14:57 50.86475 7.13898 262 ft 18 kts 242°
2026-04-26 14:58 50.86418 7.13712 260 ft 19 kts 245°
2026-04-26 14:58 50.86365 7.13542 261 ft 11 kts 244°
2026-04-26 14:58 50.86335 7.13444 259 ft 5 kts 245°
2026-04-26 14:58 50.86333 7.13435 259 ft 0 kts 245°
2026-04-26 15:00 50.86315 7.13373 258 ft 14 kts 245°
2026-04-26 15:00 50.86271 7.13224 256 ft 16 kts 245°
2026-04-26 15:00 50.86218 7.13050 252 ft 19 kts 244°
2026-04-26 15:00 50.86160 7.12862 252 ft 19 kts 243°
2026-04-26 15:01 50.86107 7.12674 253 ft 16 kts 256°
2026-04-26 15:01 50.86102 7.12523 254 ft 13 kts 272°
2026-04-26 15:01 50.86092 7.12407 252 ft 6 kts 282°
2026-04-26 15:01 50.86129 7.12366 251 ft 6 kts 346°
2026-04-26 15:02 50.86187 7.12344 248 ft 11 kts 346°
2026-04-26 15:02 50.86275 7.12318 243 ft 15 kts 348°
2026-04-26 15:02 50.86379 7.12277 241 ft 16 kts 346°
2026-04-26 15:02 50.86479 7.12237 241 ft 15 kts 345°
2026-04-26 15:03 50.86576 7.12196 241 ft 14 kts 345°
2026-04-26 15:03 50.86667 7.12158 241 ft 13 kts 345°
2026-04-26 15:03 50.86716 7.12126 241 ft 2 kts 300°
2026-04-26 15:03 50.86715 7.12108 242 ft 2 kts 258°
2026-04-26 15:04 50.86707 7.12064 242 ft 6 kts 254°
2026-04-26 15:04 50.86694 7.11985 242 ft 9 kts 255°
2026-04-26 15:04 50.86682 7.11912 242 ft 0 kts 255°
2026-04-26 15:04 50.86687 7.11942 242 ft 1 kts 255°
2026-04-26 15:05 50.86686 7.11938 242 ft 0 kts 253°
2026-04-26 15:05 50.86686 7.11939 242 ft 0 kts 253°
2026-04-26 15:05 50.86687 7.11940 241 ft 0 kts 253°